Simultaneous Nadir Overpasses (SNOs) Predictions

Prediction of SNOs between GOES-17 and TERRA Satellite Orbit:

Table of predicted SNOs for the next 14.0 days since TLE Epoch: 6/12/2021
Index Date Time (GOES-17) GOES-17 Lat,Lon TERRA Lat,Lon Distance(km) Time Diff (sec)
1 06/13/2021 19:37:27 0.03,-137.20 -0.01,-137.06 15.68 80
2 06/15/2021 19:25:14 0.02,-137.19 -0.64,-134.10 350.70 80
3 06/16/2021 07:43:58 -0.02,-137.19 -0.46,-139.30 239.99 80
4 06/18/2021 07:34:25 -0.02,-137.17 0.17,-136.34 94.51 80
5 06/18/2021 19:53:00 0.02,-137.17 0.93,-141.50 492.68 80
6 06/20/2021 07:22:12 -0.02,-137.15 0.80,-133.39 428.43 80
7 06/20/2021 19:40:47 0.02,-137.14 0.30,-138.54 158.96 80
8 06/22/2021 19:31:13 0.02,-137.11 -0.28,-135.58 173.88 80
9 06/23/2021 07:49:57 -0.02,-137.10 -0.81,-140.77 417.40 80
10 06/25/2021 07:37:44 -0.01,-137.06 -0.17,-137.82 85.78 80
